[[{"header":{"parameterUnit":"m.s-1","parameterCategory":1,"la1":30.2991,"la2":30.254,"lo1":-89.0895,"lo2":-89.0444,"dy":0.0017,"dx":0.0017,"nx":28,"ny":28,"refTime":"2025-12-23T03:00:00:Z","depth":0,"parameterNumber":2,"parameterNumberName":"U-component_of_WINDS"},"data":[0,0,0,0,0,0,0,0,0,0,0,0,0,0,0,0,0,0,0,0,0,0,0,0,0,0,0,0,0,0,0,0,0,0,0,0,0,0,0,0,0,0,0,0,0,0,0,0,0,0,0,0,0,0,0,0,0,0,-2.1993,-2.1993,0,-2.2003,-2.2003,-2.2003,-2.1948,-2.1947,-2.1945,-2.1944,-2.1954,-2.1956,-2.1958,0,0,0,0,0,0,0,0,0,0,0,0,0,-2.1927,-2.1928,-2.1993,-2.1993,-2.1993,-2.2003,-2.2003,-2.2003,-2.1949,-2.1947,-2.1945,-2.1943,-2.1954,-2.1956,-2.1958,0,0,0,0,0,0,0,0,0,0,0,0,0,-2.1948,-2.1929,-2.1993,-2.1967,-2.1965,-2.2003,-2.2003,-2.2003,-2.1949,-2.1947,-2.1944,-2.1942,-2.1953,-2.1956,-2.1958,-2.2022,0,0,-2.1966,-2.1968,0,0,0,0,0,0,0,0,-2.1947,-2.1951,-2.1971,-2.1969,-2.1966,-2.1972,-2.1984,-2.201,-2.195,-2.1955,-2.1944,-2.1941,-2.1962,-2.1964,-2.1971,-2.2022,-2.2023,-2.1967,-2.1968,-2.1969,-2.197,0,0,0,0,0,0,0,-2.1946,-2.195,-2.1997,-2.1971,-2.1968,-2.1955,-2.1956,-2.1988,-2.1972,-2.1954,-2.195,-2.1952,-2.1961,-2.1969,-2.1971,-2.2023,-2.1967,-2.1969,-2.197,-2.1972,-2.2128,-2.213,0,0,0,0,0,0,-2.1948,-2.1949,-2.1996,-2.1997,-2.1951,-2.1958,-2.1959,-2.1973,-2.1971,-2.1969,-2.1954,-2.195,-2.1965,-2.1968,-2.1971,-2.2045,-2.1969,-2.1972,-2.1973,-2.2125,-2.2128,-2.2131,0,0,0,0,0,0,-2.1946,-2.1952,-2.1996,-2.1972,-2.1977,-2.1962,-2.1978,-2.1974,-2.1982,-2.1971,-2.1968,-2.1966,-2.1964,-2.1967,-2.201,-2.2045,-2.1973,-2.1975,-2.2122,-2.2126,-2.213,-2.2194,0,0,0,0,0,0,-2.1945,-2.1952,-2.1976,-2.1973,-2.1978,-2.2034,-2.198,-2.1976,-2.1987,-2.1981,-2.1981,-2.1979,-2.1962,-2.2006,-2.2012,-2.2047,-2.1977,-2.2119,-2.2124,-2.2129,-2.2189,-2.22,-2.2209,0,0,0,0,0,-2.1943,-2.1993,-2.1977,-2.1983,-2.2007,-2.2036,-2.2039,-2.2019,-2.199,-2.2013,-2.2007,-2.1979,-2.2041,-2.2011,-2.2018,-2.2054,-2.2117,-2.2123,-2.2128,-2.2185,-2.2198,-2.2209,0,0,0,0,0,0,-2.2,-2.1992,-2.1974,-2.2026,-2.2032,-2.2027,-2.2056,-2.2034,-2.2049,-2.2042,-2.2017,-2.2017,-2.2064,-2.2063,-2.2031,-2.2116,-2.2073,-2.2081,-2.2114,-2.2127,-2.2137,-2.2135,-2.198,0,0,0,0,0,-2.2019,-2.2043,-2.2035,-2.2082,-2.2086,-2.2071,-2.2083,-2.2067,-2.2072,-2.2075,-2.2071,-2.2078,-2.2099,-2.2113,-2.2131,-2.2189,-2.2189,-2.2218,-2.2228,-2.2236,-2.2243,-2.2274,-2.2286,-2.215,-2.215,-2.215,0,0,-2.2058,-2.2057,-2.2073,-2.2093,-2.2096,-2.2122,-2.2073,-2.2102,-2.2121,-2.2079,-2.2119,-2.2117,-2.2123,-2.2173,-2.2195,-2.2174,-2.2281,-2.2244,-2.2251,-2.2252,-2.2281,-2.2294,-2.2305,-2.2154,-2.2153,-2.2153,0,0,-2.2142,-2.2143,-2.2182,-2.2187,-2.2192,-2.2182,-2.2192,-2.219,-2.2187,-2.2227,-2.2196,-2.2219,-2.2255,-2.2261,-2.2268,-2.2357,-2.2331,-2.2364,-2.2416,-2.2447,-2.2458,-2.2467,-2.2498,-2.251,-2.237,-2.237,-2.2371,0,-2.2189,-2.2226,-2.2205,-2.2237,-2.2246,-2.221,-2.2249,-2.2255,-2.2266,-2.2274,-2.225,-2.2296,-2.2297,-2.2349,-2.2371,-2.2378,-2.2388,-2.2363,-2.2458,-2.2467,-2.2475,-2.2505,-2.2517,-2.2374,-2.2374,-2.2373,-2.2373,0,-2.2285,-2.2311,-2.2342,-2.2354,-2.2368,-2.2403,-2.2387,-2.2404,-2.2388,-2.238,-2.2422,-2.2423,-2.2441,-2.2452,-2.2436,-2.2502,-2.2489,-2.2462,-2.2419,-2.2493,-2.252,-2.2531,-2.238,-2.2378,-2.2377,-2.2376,0,0,-2.2403,-2.2404,-2.2416,-2.2421,-2.2425,-2.2446,-2.248,-2.2498,-2.2513,-2.2523,-2.2551,-2.2584,-2.2559,-2.2568,-2.2553,-2.258,-2.265,-2.255,-2.255,-2.2568,-2.2723,-2.2742,-2.2755,-2.2634,-2.2636,-2.2638,-2.2722,0,-2.2484,-2.2542,-2.2525,-2.2583,-2.2608,-2.2575,-2.2605,-2.2611,-2.2606,-2.2627,-2.2621,-2.2645,-2.2611,-2.2616,-2.2641,-2.2636,-2.2681,-2.263,-2.266,-2.2661,-2.2658,-2.277,-2.279,-2.2869,-2.2732,-2.2734,-2.2736,0,-2.2586,-2.2601,-2.2662,-2.2663,-2.2673,-2.27,-2.2716,-2.2736,-2.2743,-2.2737,-2.2748,-2.2728,-2.2762,-2.2721,-2.2768,-2.2734,-2.2746,-2.2745,-2.2748,-2.2749,-2.2702,-2.2773,-2.2894,-2.2905,-2.2752,-2.2751,-2.275,0,-2.2666,-2.27,-2.2742,-2.2747,-2.275,-2.277,-2.2772,-2.2777,-2.2789,-2.2804,-2.2811,-2.283,-2.284,-2.2855,-2.284,-2.2811,-2.289,-2.2847,-2.2886,-2.2887,-2.2903,-2.2902,-2.3027,-2.2913,-2.2912,-2.2912,-2.2912,0,-2.2758,-2.2796,-2.2777,-2.2802,-2.2845,-2.2826,-2.2868,-2.2867,-2.2872,-2.2896,-2.287,-2.2893,-2.2873,-2.2896,-2.2885,-2.2926,-2.2931,-2.2927,-2.2924,-2.2929,-2.293,-2.2935,-2.2929,-2.2915,-2.2915,-2.2914,-2.2914,0,-2.2853,-2.2842,-2.2884,-2.2884,-2.2885,-2.2916,-2.2916,-2.2939,-2.2933,-2.2965,-2.2971,-2.2961,-2.2987,-2.2974,-2.3,-2.2993,-2.3046,-2.3035,-2.3043,-2.304,-2.308,-2.3076,-2.3212,-2.3229,-2.3105,-2.3106,-2.3107,0,-2.2911,-2.294,-2.2944,-2.2958,-2.2962,-2.2986,-2.2999,-2.2982,-2.2996,-2.3007,-2.303,-2.3053,-2.307,-2.3112,-2.3107,-2.3128,-2.3117,-2.3163,-2.3119,-2.3124,-2.3117,-2.3115,-2.3118,-2.3171,-2.3173,-2.3174,-2.3175,0,-2.3017,-2.301,-2.303,-2.3048,-2.3064,-2.3078,-2.3089,-2.3102,-2.3085,-2.3103,-2.3129,-2.3142,-2.317,-2.3193,-2.3211,-2.3213,-2.3192,-2.3189,-2.3199,-2.3204,-2.3207,-2.3205,-2.3066,-2.3185,-2.3184,-2.3184,-2.3183,-2.3183,-2.3095,-2.3119,-2.3125,-2.3148,-2.3155,-2.3167,-2.3189,-2.3186,-2.3207,-2.3227,-2.3216,-2.3246,-2.3254,-2.3276,-2.3282,-2.3305,-2.3287,-2.3302,-2.3305,-2.3309,-2.3314,-2.3205,-2.3309,-2.3308,-2.3308,-2.3308,-2.3308,0,-2.3198,-2.3201,-2.3222,-2.3239,-2.3257,-2.3236,-2.3248,-2.3265,-2.3291,-2.33,-2.3318,-2.3348,-2.3371,-2.3369,-2.339,-2.341,-2.34,-2.3416,-2.3413,-2.3414,-2.3329,-2.3318,-2.3423,-2.3423,-2.3423,-2.3423,-2.3423,-2.3423,-2.3254,-2.3294,-2.3289,-2.3333,-2.3335,-2.3364,-2.3373,-2.3383,-2.3391,-2.3425,-2.3444,-2.3443,-2.3448,-2.3469,-2.349,-2.3489,-2.3497,-2.3517,-2.3512,-2.3432,-2.342,-2.3409,-2.3399,-2.3519,-2.3519,-2.3595,-2.3596,-2.3596]},{"header":{"parameterUnit":"m.s-1","parameterCategory":1,"la1":30.2991,"la2":30.254,"lo1":-89.0895,"lo2":-89.0444,"dy":0.0017,"dx":0.0017,"nx":28,"ny":28,"refTime":"2025-12-23T03:00:00:Z","depth":0,"parameterNumber":3,"parameterNumberName":"V-component_of_WINDS"},"data":[0,0,0,0,0,0,0,0,0,0,0,0,0,0,0,0,0,0,0,0,0,0,0,0,0,0,0,0,0,0,0,0,0,0,0,0,0,0,0,0,0,0,0,0,0,0,0,0,0,0,0,0,0,0,0,0,0,0,0.6262,0.6262,0,0.629,0.629,0.6291,0.636,0.6362,0.6363,0.6365,0.639,0.6389,0.6389,0,0,0,0,0,0,0,0,0,0,0,0,0,0.6264,0.6264,0.6261,0.6262,0.6262,0.629,0.629,0.6291,0.636,0.6362,0.6364,0.6365,0.639,0.6389,0.6389,0,0,0,0,0,0,0,0,0,0,0,0,0,0.6275,0.6263,0.6261,0.63,0.6304,0.629,0.629,0.6291,0.636,0.6362,0.6364,0.6366,0.639,0.6389,0.6388,0.6338,0,0,0.6385,0.6385,0,0,0,0,0,0,0,0,0.6274,0.6274,0.6294,0.6298,0.6302,0.6324,0.6301,0.6307,0.6359,0.6338,0.6365,0.6367,0.6366,0.6367,0.6368,0.6339,0.634,0.6385,0.6385,0.6384,0.6384,0,0,0,0,0,0,0,0.6273,0.6274,0.6273,0.6294,0.6299,0.6315,0.6319,0.6302,0.6339,0.634,0.6346,0.6348,0.6368,0.6368,0.6369,0.6341,0.6385,0.6384,0.6384,0.6383,0.6273,0.6271,0,0,0,0,0,0,0.6267,0.6272,0.6272,0.6274,0.6293,0.6313,0.6318,0.6315,0.634,0.6346,0.6346,0.6351,0.6369,0.637,0.637,0.6313,0.6384,0.6383,0.6383,0.6275,0.6273,0.627,0,0,0,0,0,0,0.6267,0.6266,0.6271,0.6274,0.6276,0.6311,0.6307,0.6314,0.6314,0.6344,0.6351,0.634,0.6371,0.6371,0.6346,0.6315,0.6383,0.6382,0.6278,0.6275,0.6271,0.6199,0,0,0,0,0,0,0.6267,0.6266,0.6248,0.6274,0.6276,0.6247,0.6305,0.6313,0.6312,0.6319,0.634,0.6345,0.6373,0.6347,0.6345,0.6315,0.6381,0.6281,0.6277,0.6272,0.6204,0.6193,0.6184,0,0,0,0,0,0.6267,0.6225,0.6246,0.6246,0.6254,0.6245,0.6246,0.628,0.631,0.6291,0.6311,0.6344,0.6319,0.6344,0.6342,0.6311,0.6283,0.6278,0.6273,0.6208,0.6195,0.6184,0,0,0,0,0,0,0.6193,0.6229,0.6253,0.6219,0.6229,0.6257,0.6235,0.6264,0.6265,0.6271,0.6311,0.6315,0.6284,0.6295,0.6323,0.6264,0.6306,0.6301,0.6258,0.6246,0.6236,0.6234,0.638,0,0,0,0,0,0.6173,0.6164,0.6195,0.6162,0.6166,0.6199,0.6196,0.6222,0.6233,0.6237,0.6255,0.6263,0.6257,0.6252,0.6248,0.6206,0.6211,0.6184,0.6174,0.6165,0.616,0.6139,0.6127,0.6253,0.6253,0.6253,0,0,0.6131,0.615,0.6141,0.6148,0.6158,0.6147,0.6202,0.6188,0.618,0.6234,0.6212,0.6225,0.6237,0.6203,0.6189,0.6211,0.6126,0.6159,0.6152,0.6151,0.6132,0.612,0.611,0.625,0.625,0.6251,0,0,0.6049,0.6062,0.6037,0.6046,0.6062,0.6085,0.6078,0.6102,0.6114,0.6093,0.6134,0.6124,0.6112,0.612,0.6122,0.6044,0.6075,0.6041,0.5989,0.5968,0.5958,0.5949,0.5922,0.5912,0.6036,0.6036,0.6035,0,0.5994,0.5981,0.6019,0.6003,0.6004,0.6055,0.6029,0.6036,0.6049,0.6048,0.6073,0.6061,0.6073,0.6042,0.6023,0.6023,0.6017,0.6039,0.5957,0.5948,0.5941,0.5915,0.5905,0.6031,0.6032,0.6032,0.6033,0,0.5913,0.5903,0.588,0.5893,0.5892,0.5871,0.5905,0.59,0.5925,0.5945,0.5922,0.5938,0.5939,0.5934,0.5957,0.5906,0.5919,0.595,0.5993,0.5924,0.5901,0.5891,0.6025,0.6027,0.6028,0.6029,0,0,0.5785,0.5821,0.5812,0.5819,0.584,0.5833,0.5813,0.5816,0.581,0.5817,0.5802,0.5792,0.5821,0.5823,0.5848,0.583,0.5768,0.5863,0.5864,0.5845,0.5713,0.569,0.5678,0.5789,0.5787,0.5786,0.5712,0,0.5708,0.5679,0.5714,0.5677,0.5668,0.5716,0.57,0.5711,0.5729,0.5723,0.5743,0.5735,0.5773,0.5775,0.5759,0.5779,0.5742,0.5785,0.5774,0.5774,0.577,0.5666,0.5641,0.5571,0.5703,0.5701,0.57,0,0.5615,0.562,0.5583,0.5608,0.5605,0.559,0.5595,0.5589,0.5603,0.5617,0.562,0.5651,0.5634,0.5676,0.5652,0.5681,0.5679,0.5687,0.5686,0.5686,0.5733,0.5663,0.5549,0.5538,0.5686,0.5687,0.5688,0,0.5526,0.5523,0.5501,0.5505,0.5534,0.5522,0.5533,0.5549,0.5548,0.5552,0.5552,0.5553,0.5554,0.5554,0.5584,0.5612,0.5556,0.5601,0.5568,0.5567,0.5554,0.5554,0.5438,0.5552,0.5552,0.5552,0.5552,0,0.5437,0.5412,0.5461,0.5447,0.5421,0.5461,0.5433,0.5449,0.5463,0.5452,0.5494,0.5483,0.5524,0.5517,0.554,0.5517,0.5517,0.5528,0.5534,0.5524,0.5523,0.5523,0.5529,0.5549,0.555,0.555,0.5551,0,0.5333,0.5365,0.5344,0.5373,0.538,0.5359,0.5384,0.5372,0.5393,0.538,0.5379,0.5411,0.5406,0.5436,0.5435,0.5451,0.5416,0.5431,0.5412,0.5417,0.5381,0.5384,0.5261,0.5247,0.537,0.5369,0.5368,0,0.5274,0.5257,0.5285,0.5282,0.5291,0.5285,0.5285,0.5323,0.5322,0.5336,0.5322,0.532,0.5321,0.5309,0.5332,0.5332,0.5347,0.5304,0.5347,0.5338,0.5347,0.5348,0.5346,0.5295,0.5293,0.5292,0.5291,0,0.5167,0.5184,0.5183,0.5188,0.5188,0.5193,0.5201,0.5196,0.5237,0.5233,0.5228,0.5229,0.5229,0.5226,0.5231,0.5241,0.5273,0.5278,0.527,0.5259,0.5249,0.5255,0.5388,0.528,0.5281,0.5282,0.5283,0.5283,0.5084,0.5071,0.5089,0.5088,0.5098,0.5105,0.5095,0.5116,0.5114,0.5118,0.514,0.5132,0.5146,0.5156,0.5163,0.5156,0.5177,0.5165,0.5162,0.5159,0.5153,0.525,0.5157,0.5157,0.5158,0.5158,0.5158,0,0.4979,0.4994,0.4992,0.5003,0.5001,0.5033,0.5043,0.5039,0.5032,0.5043,0.5043,0.5038,0.5036,0.506,0.506,0.505,0.5065,0.5049,0.505,0.5052,0.5134,0.5141,0.5038,0.5038,0.5038,0.5038,0.5038,0.5038,0.4925,0.4905,0.4924,0.4909,0.4924,0.4917,0.4921,0.4927,0.4936,0.4929,0.4929,0.4944,0.4961,0.4963,0.4962,0.4969,0.4968,0.4947,0.4959,0.5035,0.5047,0.5058,0.5064,0.4946,0.4946,0.4877,0.4877,0.4876]}]]